Change the Weather History Date:

Sunday, March 31, 2013

  Actual Average Record
Temperature  
Mean Temperature 34 °F -  
Max Temperature 45 °F 52 °F 62 °F (2004)
Min Temperature 24 °F 41 °F 24 °F (2013)
Degree Days  
Heating Degree Days 30    
Moisture  
Dew Point 24 °F    
Average Humidity 59    
Maximum Humidity 93    
Minimum Humidity 30    
Precipitation  
Precipitation 0.00 in - - ()
Sea Level Pressure  
Sea Level Pressure 29.97 in    
Wind  
Wind Speed 9 mph ()    
Max Wind Speed 16 mph    
Max Gust Speed -    
Visibility 6.2 miles    
Events      
Averages and records for this station are not official NWS values.
T = Trace of Precipitation, MM = Missing Value Source: Averaged Metar Reports

Daily Weather History Graph

Daily Weather History Graph

Search for Another Location

Airport or City:

Trip Planner

Search our weather history database for the weather conditions in past years. The results will help you decide how hot, cold, wet, or windy it might be!

Date:

Astronomy

Mar. 31, 2013 Rise Set
Actual Time 6:47 AM BST 7:46 PM BST
Civil Twilight 6:11 AM BST 8:22 PM BST
Nautical Twilight 5:28 AM BST 9:05 PM BST
Astronomical Twilight 4:41 AM BST 9:52 PM BST
Moon 12:11 AM GMT (3/31) 8:44 AM BST (3/31)
Length of Visible Light 14h 10m
Length of Day
12h 58m
Waning Gibbous, 80% of the Moon is Illuminated
Mar 31
Waning Gibbous
Apr 3
Last Quarter
Apr 10
New
Apr 18
First Quarter
Apr 25
Full

Hourly Weather History & Observations

Time (BST) Temp. Windchill Dew Point Humidity Pressure Visibility Wind Dir Wind Speed Gust Speed Precip Events Conditions
3:50 AM 25 °F - 22 °F 81%  in - ESE 5.8 mph - -  
6:20 AM 24.8 °F 19.1 °F 23.0 °F 93% 30.01 in - East 4.6 mph - N/A   Clear
6:50 AM 24 °F - 21 °F 83%  in - East 5.8 mph - -  
6:50 AM 26.6 °F 20.0 °F 23.0 °F 86% 30.01 in - East 5.8 mph - N/A   Clear
7:20 AM 28.4 °F 23.3 °F 24.8 °F 86% 30.01 in - East 4.6 mph - N/A   Clear
7:50 AM 28.4 °F 23.3 °F 24.8 °F 86% 30.01 in - East 4.6 mph - N/A   Clear
8:20 AM 30.2 °F 23.4 °F 26.6 °F 86% 30.01 in - East 6.9 mph - N/A   Clear
9:20 AM 35.6 °F 28.6 °F 28.4 °F 75% 30.01 in - East 9.2 mph - N/A   Clear
9:50 AM 37 °F - 27 °F 56%  in - ESE 11.5 mph - -  
9:50 AM 37.4 °F 30.8 °F 28.4 °F 70% 30.01 in 6.2 mi ESE 9.2 mph - N/A   Partly Cloudy
10:20 AM 39.2 °F 32.5 °F 26.6 °F 61% 30.01 in 6.2 mi ESE 10.4 mph - N/A   Partly Cloudy
10:50 AM 39.2 °F 31.2 °F 24.8 °F 56% 30.01 in 6.2 mi SE 13.8 mph - N/A   Partly Cloudy
11:20 AM 39.2 °F 30.5 °F 23.0 °F 52% 30.01 in 6.2 mi SE 16.1 mph - N/A   Scattered Clouds
12:20 PM 39.2 °F 32.0 °F 24.8 °F 56% 30.01 in 6.2 mi ESE 11.5 mph - N/A   Scattered Clouds
12:50 PM 40 °F - 24 °F 39%  in - ESE 15.0 mph - -  
12:50 PM 41.0 °F 33.5 °F 24.8 °F 53% 30.01 in 6.2 mi SE 13.8 mph - N/A   Scattered Clouds
1:20 PM 41.0 °F 33.9 °F 24.8 °F 53% 29.98 in 6.2 mi ESE 12.7 mph - N/A   Scattered Clouds
1:50 PM 44.6 °F 38.8 °F 21.2 °F 39% 29.98 in 6.2 mi ESE 11.5 mph - N/A   Partly Cloudy
2:20 PM 42.8 °F 35.4 °F 23.0 °F 46% 29.98 in 6.2 mi ESE 15.0 mph - N/A   Partly Cloudy
3:20 PM 44.6 °F 38.1 °F 23.0 °F 43% 29.95 in 6.2 mi East 13.8 mph - N/A   Partly Cloudy
3:50 PM 44 °F - 23 °F 30%  in - ESE 16.1 mph - -  
3:50 PM 44.6 °F 37.8 °F 23.0 °F 43% 29.95 in 6.2 mi ESE 15.0 mph - N/A   Partly Cloudy
4:20 PM 44.6 °F 37.8 °F 23.0 °F 43% 29.95 in 6.2 mi ESE 15.0 mph - N/A   Partly Cloudy
4:50 PM 44.6 °F 38.1 °F 21.2 °F 39% 29.95 in 6.2 mi ESE 13.8 mph - N/A   Partly Cloudy
5:20 PM 44.6 °F 38.1 °F 19.4 °F 37% 29.92 in - ESE 13.8 mph - N/A   Clear
5:50 PM 44.6 °F 37.8 °F 19.4 °F 37% 29.92 in - East 15.0 mph - N/A   Clear
6:20 PM 42.8 °F 35.4 °F 19.4 °F 39% 29.92 in - ESE 15.0 mph - N/A   Clear
6:50 PM 40 °F - 22 °F 35%  in - East 13.8 mph - -  
6:50 PM 41.0 °F 33.9 °F 21.2 °F 45% 29.92 in - ESE 12.7 mph - N/A   Clear
7:20 PM 39.2 °F 31.2 °F 23.0 °F 52% 29.95 in - ESE 13.8 mph - N/A   Clear
7:50 PM 37.4 °F 29.8 °F 23.0 °F 56% 29.95 in - ESE 11.5 mph - N/A   Clear
8:20 PM 37.4 °F 29.3 °F 23.0 °F 56% 29.95 in - East 12.7 mph - N/A   Clear
8:50 PM 35.6 °F 27.1 °F 23.0 °F 60% 29.95 in - ESE 12.7 mph - N/A   Clear
9:20 PM 35.6 °F 27.5 °F 24.8 °F 65% 29.95 in - East 11.5 mph - N/A   Clear
9:50 PM 34 °F - 23 °F 53%  in - East 12.7 mph - -  
9:50 PM 33.8 °F 25.3 °F 24.8 °F 70% 29.98 in 6.2 mi East 11.5 mph - N/A   Partly Cloudy
10:20 PM 33.8 °F 25.3 °F 24.8 °F 70% 29.98 in 6.2 mi East 11.5 mph - N/A   Partly Cloudy
10:50 PM 33.8 °F 25.3 °F 24.8 °F 70% 29.95 in 6.2 mi East 11.5 mph - N/A   Partly Cloudy
11:20 PM 33.8 °F 25.8 °F 24.8 °F 70% 29.95 in - East 10.4 mph - N/A   Clear
11:50 PM 32.0 °F 23.0 °F 26.6 °F 80% 29.95 in - East 11.5 mph - N/A   Clear
12:50 AM 32 °F - 25 °F 68%  in - East 11.5 mph - -